Tracking 30922 objects as of 2-Jul-2025
HD Live streaming from Space Station
objects crossing your sky now

STARLINK-4739

Track STARLINK-4739 now!
10-day predictions
STARLINK-4739 is classified as:


NORAD ID: 53792
Int'l Code: 2022-111V
Perigee: 546.1 km
Apogee: 547.7 km
Inclination: 53.2 °
Period: 95.4 minutes
Semi major axis: 6917 km
RCS: Unknown
Launch date: September 11, 2022
Source: United States (US)
Launch site: AIR FORCE EASTERN TEST RANGE (AFETR)
Your satellite tracking list
FENGYUN 1C DEB
Track 1 satellite(s)




NASA's NSSDC Master Catalog

Two Line Element Set (TLE):
1 53792U 22111V   25182.65707299  .00000140  00000-0  26870-4 0  9998
2 53792  53.2177 321.3991 0001161  89.0720 271.0405 15.08840386155784
Source of the keplerian elements: AFSPC